CW4517 Weather Reports


time (UTC)temp
C
wind
direction
speed
KPH
gust
KPH
rain 1hr
cm
rain 24hr
cm
rain mn
cm
humidity
%
barometer
mb
20260504204501 26 169 19.3 45.1 0.00 0.00 0.00 47 995.7
20260504203955 26 201 19.3 45.1 0.00 0.00 0.00 47 995.7
20260504203450 26 211 17.7 35.4 0.00 0.00 0.00 43 995.9
20260504202939 26 220 17.7 35.4 0.00 0.00 0.00 42 995.9
20260504202656 26 189 14.5 33.8 0.00 0.00 0.00 42 995.9
20260504201931 26 248 14.5 29.0 0.00 0.00 0.00 42 996.1
20260504201425 26 213 16.1 29.0 0.00 0.00 0.00 41 996.1
20260504201136 26 225 14.5 29.0 0.00 0.00 0.00 41 996.1
20260504200415 25 239 14.5 29.0 0.00 0.00 0.00 38 996.4
20260504195904 25 241 16.1 32.2 0.00 0.00 0.00 43 996.4
20260504195402 25 212 14.5 32.2 0.00 0.00 0.00 42 996.4
20260504195124 26 213 14.5 37.0 0.00 0.00 0.00 38 996.4
20260504194359 26 233 12.9 37.0 0.00 0.00 0.00 38 996.4
20260504194122 26 210 11.3 37.0 0.00 0.00 0.00 40 996.4
20260504193359 25 197 12.9 37.0 0.00 0.00 0.00 40 996.4
20260504193122 26 235 16.1 40.2 0.00 0.00 0.00 38 996.4
20260504192355 25 255 17.7 40.2 0.00 0.00 0.00 39 996.4
20260504191854 25 240 16.1 46.7 0.00 0.00 0.00 40 996.4
20260504191354 26 263 16.1 46.7 0.00 0.00 0.00 39 996.4
20260504190854 26 271 16.1 33.8 0.00 0.00 0.00 41 996.4
20260504190352 25 209 16.1 41.8 0.00 0.00 0.00 40 996.7
20260504190117 25 237 17.7 41.8 0.00 0.00 0.00 41 996.7
20260504185351 25 225 17.7 33.8 0.00 0.00 0.00 41 996.7
20260504185114 25 187 16.1 33.8 0.00 0.00 0.00 43 996.9
20260504184350 25 262 17.7 35.4 0.00 0.00 0.00 43 996.9
20260504183851 25 221 17.7 35.4 0.00 0.00 0.00 44 996.9
20260504183610 25 222 16.1 30.6 0.00 0.00 0.00 45 997.0
20260504182847 25 228 16.1 32.2 0.00 0.00 0.00 47 997.0
20260504182338 25 282 16.1 32.2 0.00 0.00 0.00 44 997.0
20260504182324 24 212 16.1 35.4 0.00 0.00 0.00 44 997.0
20260504181338 24 235 16.1 35.4 0.00 0.00 0.00 45 997.0
20260504180838 24 232 16.1 37.0 0.00 0.00 0.00 45 997.0
20260504180339 24 232 16.1 37.0 0.00 0.00 0.00 46 997.3
20260504180105 24 204 17.7 35.4 0.00 0.00 0.00 47 997.3
20260504175338 24 294 16.1 30.6 0.00 0.00 0.00 48 997.3
20260504174841 23 232 14.5 25.7 0.00 0.00 0.00 51 997.5
20260504174340 23 248 14.5 37.0 0.00 0.00 0.00 51 997.5
20260504174101 23 221 14.5 37.0 0.00 0.00 0.00 52 997.5
20260504173333 23 236 14.5 27.4 0.00 0.00 0.00 54 997.9
20260504172822 23 220 14.5 32.2 0.00 0.00 0.00 53 997.9
20260504172321 22 207 14.5 32.2 0.00 0.00 0.00 54 997.9
20260504171815 23 234 12.9 24.1 0.00 0.00 0.00 53 998.0
20260504171310 23 238 12.9 24.1 0.00 0.00 0.00 53 998.0
20260504170803 22 271 14.5 33.8 0.00 0.00 0.00 52 998.0
20260504170253 22 259 14.5 33.8 0.00 0.00 0.00 52 998.1
20260504160359 21 233 12.9 29.0 0.00 0.00 0.00 60 999.1
20260504151130 20 219 12.9 25.7 0.00 0.00 0.00 59 999.6
20260504150631 19 232 12.9 24.1 0.00 0.00 0.00 58 999.6
20260504150130 19 219 11.3 20.9 0.00 0.00 0.00 59 999.7
20260504141110 16 223 9.7 20.9 0.00 0.00 0.00 67 1000.2
20260504140831 16 225 8.0 20.9 0.00 0.00 0.00 67 1000.2
20260504140109 16 216 8.0 17.7 0.00 0.00 0.00 68 1000.4
20260504130752 13 211 6.4 12.9 0.00 0.00 0.00 76 1000.8
20260504110323 8 205 4.8 11.3 0.00 0.00 0.00 84 1001.1
20260504100321 8 186 4.8 11.3 0.00 0.00 0.00 84 1001.3
20260504090122 8 208 4.8 9.7 0.00 0.00 0.00 82 1001.3
20260504081526 9 215 6.4 11.3 0.00 0.00 0.00 80 1001.4
20260504081022 9 209 6.4 11.3 0.00 0.00 0.00 81 1001.4
20260504080516 9 215 4.8 11.3 0.00 0.00 0.00 81 1001.4
20260504050736 11 211 6.4 11.3 0.00 0.00 0.00 74 1002.8
20260504050230 11 232 6.4 11.3 0.00 0.00 0.00 73 1002.7
20260504045719 11 219 6.4 12.9 0.00 0.00 0.00 73 1002.7
20260504045215 12 216 4.8 12.9 0.00 0.00 0.00 72 1002.7
20260504044712 12 198 6.4 11.3 0.00 0.00 0.00 72 1002.8
20260504044212 12 226 4.8 11.3 0.00 0.00 0.00 72 1002.8
20260504043711 12 232 4.8 11.3 0.00 0.00 0.00 72 1002.8
20260504043212 12 207 4.8 11.3 0.00 0.00 0.00 72 1002.9
20260504042711 12 219 4.8 11.3 0.00 0.00 0.00 72 1002.9
20260504042435 12 209 4.8 11.3 0.00 0.00 0.00 72 1002.9
20260504041712 12 208 4.8 6.4 0.00 0.00 0.00 72 1003.1
20260504041211 12 235 3.2 8.0 0.00 0.00 0.00 72 1003.1
20260504040711 12 221 3.2 8.0 0.00 0.00 0.00 72 1003.1
20260504040207 12 215 3.2 8.0 0.00 0.00 0.00 72 1003.3
20260504035653 12 196 3.2 8.0 0.00 0.00 0.00 72 1003.3
20260504035145 12 208 4.8 8.0 0.00 0.00 0.00 72 1003.3
20260504034640 12 230 4.8 11.3 0.00 0.00 0.00 72 1003.4
20260504034133 12 212 4.8 11.3 0.00 0.00 0.00 72 1003.4
20260504033627 12 204 4.8 9.7 0.00 0.00 0.00 72 1003.4
20260504033117 12 225 4.8 8.0 0.00 0.00 0.00 71 1003.5
20260504032615 12 241 4.8 8.0 0.00 0.00 0.00 71 1003.5
20260504032109 13 198 4.8 11.3 0.00 0.00 0.00 71 1003.5
20260504031605 13 195 4.8 11.3 0.00 0.00 0.00 71 1003.6
20260504031059 13 211 3.2 8.0 0.00 0.00 0.00 71 1003.6
20260504030548 13 202 3.2 9.7 0.00 0.00 0.00 71 1003.6
20260504030045 13 219 3.2 8.0 0.00 0.00 0.00 70 1003.7
20260504025539 13 211 3.2 6.4 0.00 0.00 0.00 70 1003.7
20260504025034 13 211 3.2 8.0 0.00 0.00 0.00 70 1003.7
20260504024528 13 223 4.8 11.3 0.00 0.00 0.00 70 1003.5
20260504024018 13 184 3.2 11.3 0.00 0.00 0.00 70 1003.5
20260504023515 13 177 3.2 8.0 0.00 0.00 0.00 69 1003.5
20260504023448 13 213 3.2 8.0 0.00 0.00 0.00 69 1003.4
20260504022503 13 186 3.2 8.0 0.00 0.00 0.00 69 1003.4
20260504022441 13 188 3.2 11.3 0.00 0.00 0.00 68 1003.4
20260504021453 13 145 3.2 11.3 0.00 0.00 0.00 68 1003.3
20260504020947 13 219 3.2 8.0 0.00 0.00 0.00 68 1003.3
20260504020435 14 215 3.2 6.4 0.00 0.00 0.00 68 1003.1
20260504015932 14 217 3.2 8.0 0.00 0.00 0.00 67 1003.1
20260504015646 14 193 4.8 8.0 0.00 0.00 0.00 67 1003.1
20260504015143 14 213 4.8 9.7 0.00 0.00 0.00 66 1003.1
20260504014642 14 219 4.8 9.7 0.00 0.00 0.00 66 1003.1
20260504013904 15 203 3.2 9.7 0.00 0.00 0.00 66 1003.1
20260504013404 15 196 3.2 6.4 0.00 0.00 0.00 65 1003.0
20260504012858 15 225 4.8 6.4 0.00 0.00 0.00 65 1003.0
20260504012351 15 232 4.8 9.7 0.00 0.00 0.00 64 1003.0
20260504011846 15 192 3.2 9.7 0.00 0.00 0.00 63 1002.9
20260504011339 15 211 3.2 14.5 0.00 0.00 0.00 63 1002.9
20260504010832 16 196 4.8 14.5 0.00 0.00 0.00 62 1002.9
20260504010323 16 174 3.2 9.7 0.00 0.00 0.00 61 1003.0
20260504010047 16 196 4.8 9.7 0.00 0.00 0.00 61 1003.0
20260504005315 16 217 4.8 11.3 0.00 0.00 0.00 60 1003.0
20260504004809 16 226 6.4 12.9 0.00 0.00 0.00 59 1003.0
20260504004303 16 242 8.0 14.5 0.00 0.00 0.00 59 1003.0
20260504003757 17 195 8.0 17.7 0.00 0.00 0.00 58 1003.0
20260504003515 17 225 8.0 17.7 0.00 0.00 0.00 57 1003.0
20260504002757 17 229 9.7 19.3 0.00 0.00 0.00 56 1003.0
20260504002520 17 192 11.3 25.7 0.00 0.00 0.00 55 1003.0
20260504001757 18 232 12.9 25.7 0.00 0.00 0.00 54 1003.2
20260504001743 18 240 11.3 25.7 0.00 0.00 0.00 54 1003.2
20260504001022 18 212 12.9 25.7 0.00 0.00 0.00 53 1003.2
20260504000259 18 221 12.9 32.2 0.00 0.00 0.00 52 1003.0
20260503235801 18 224 12.9 32.2 0.00 0.00 0.00 52 1003.0
20260503235254 18 238 12.9 32.2 0.00 0.00 0.00 52 1003.0
20260503234741 18 238 12.9 32.2 0.00 0.00 0.00 52 1003.1
20260503234231 18 234 11.3 30.6 0.00 0.00 0.00 52 1003.1
20260503233725 18 253 11.3 24.1 0.00 0.00 0.00 52 1003.1
20260503233219 18 231 12.9 22.5 0.00 0.00 0.00 51 1003.1
20260503232713 18 216 14.5 29.0 0.00 0.00 0.00 51 1003.1
20260503232207 18 232 14.5 29.0 0.00 0.00 0.00 51 1003.1
20260503231921 18 196 12.9 27.4 0.00 0.00 0.00 51 1003.3
20260503231155 18 216 11.3 24.1 0.00 0.00 0.00 53 1003.3
20260503230645 18 211 11.3 20.9 0.00 0.00 0.00 53 1003.3
20260503230143 18 241 11.3 24.1 0.00 0.00 0.00 53 1003.4
20260503230122 17 181 12.9 24.1 0.00 0.00 0.00 53 1003.4
20260503225132 18 227 11.3 22.5 0.00 0.00 0.00 53 1003.4
20260503225113 18 231 11.3 22.5 0.00 0.00 0.00 54 1003.5
20260503224119 17 227 11.3 20.9 0.00 0.00 0.00 53 1003.5
20260503223614 17 196 11.3 24.1 0.00 0.00 0.00 54 1003.5
20260503223337 17 241 11.3 24.1 0.00 0.00 0.00 53 1003.8
20260503222615 17 217 9.7 20.9 0.00 0.00 0.00 54 1003.8
20260503222114 17 167 9.7 22.5 0.00 0.00 0.00 54 1003.8
20260503221834 17 199 11.3 22.5 0.00 0.00 0.00 54 1003.9
20260503221114 17 173 11.3 22.5 0.00 0.00 0.00 54 1003.9
20260503220614 17 188 11.3 20.9 0.00 0.00 0.00 53 1003.9
20260503220333 17 191 11.3 24.1 0.00 0.00 0.00 53 1003.9
20260503215614 17 172 11.3 24.1 0.00 0.00 0.00 52 1003.9
20260503215114 17 188 12.9 30.6 0.00 0.00 0.00 53 1003.9
20260503214614 17 235 14.5 32.2 0.00 0.00 0.00 52 1004.0
20260503214111 17 184 14.5 32.2 0.00 0.00 0.00 52 1004.0
20260503213610 17 239 16.1 40.2 0.00 0.00 0.00 50 1004.0
20260503213110 17 281 17.7 40.2 0.00 0.00 0.00 49 1004.4
20260503212611 17 223 16.1 37.0 0.00 0.00 0.00 50 1004.4
20260503212110 17 209 14.5 30.6 0.00 0.00 0.00 51 1004.4
20260503211610 17 188 16.1 30.6 0.00 0.00 0.00 53 1004.8
20260503211110 17 243 16.1 32.2 0.00 0.00 0.00 51 1004.8
20260503210604 16 255 14.5 32.2 0.00 0.00 0.00 51 1004.8
20260503210056 16 239 14.5 33.8 0.00 0.00 0.00 51 1005.0
20260503205549 16 201 16.1 33.8 0.00 0.00 0.00 50 1005.0
20260503205043 16 234 17.7 35.4 0.00 0.00 0.00 50 1005.0